Regional Weather Roundup
Issued by NWS

Home | Current Version | Previous Version | Text Only | Print | Product List | Glossary Off
Versions: 1 2 3 4 5 6 7 8 9 10 11 12 13 14 15 16 17 18 19 20 21 22 23 24 25 26 27 28 29 30 31 32 33 34 35 36 37 38 39 40 41 42 43 44 45 46 47 48 49 50

641
ASUS43 KFSD 290502
RWRSD

WEATHER ROUNDUP FOR SOUTH DAKOTA
NATIONAL WEATHER SERVICE SIOUX FALLS SD
1200 AM CDT THU SEP 29 2016

NOTE: "FAIR" INDICATES FEW OR NO CLOUDS BELOW 12,000 FEET WITH NO
SIGNIFICANT WEATHER AND/OR OBSTRUCTIONS TO VISIBILITY.


SDZ001>005-009-010-012>017-290600-
NORTHWEST AND NORTH CENTRAL SOUTH DAKOTA

CITY           SKY/WX    TMP DP  RH WIND       PRES   REMARKS
BUFFALO          N/A     55  36  48 SE15      30.25S
FAITH            N/A     53  45  74 SE16      30.34S
MOBRIDGE       CLEAR     48  40  73 E8        30.36R
$$

SDZ012>016-024>037-041>051-057-063-072>074-290600-
SOUTHWEST AND SOUTH CENTRAL SOUTH DAKOTA

CITY           SKY/WX    TMP DP  RH WIND       PRES   REMARKS
RAPID CTY ARPT CLEAR     49  36  61 CALM      30.36R
PIERRE         CLEAR     45  39  79 CALM      30.36R
CUSTER         CLEAR     49  37  63 E7        30.43S
ELLSWORTH AFB  CLEAR     54  37  51 SE7       30.35S
PHILIP         CLEAR     45  39  79 E5        30.35R
PINE RIDGE     CLEAR     54  34  46 E6        30.35R
WINNER         FAIR      48  42  80 SE7       30.37S
$$

SDZ004>011-016>023-039-040-290600-
NORTHEAST SOUTH DAKOTA

CITY           SKY/WX    TMP DP  RH WIND       PRES   REMARKS
ABERDEEN       CLOUDY    44  41  89 E3        30.40R
WATERTOWN      CLOUDY    42  40  92 N5        30.40R
SISSETON         N/A     41  39  93 NW3       30.40R
$$

SDZ017-020-022-023-036>040-048>070-290600-
SOUTHEAST SOUTH DAKOTA

CITY           SKY/WX    TMP DP  RH WIND       PRES   REMARKS
SIOUX FALLS    CLEAR     46  44  93 CALM      30.39R
HURON          CLEAR     47  45  93 E3        30.39R
CHAMBERLAIN    CLEAR     49  45  86 E5        30.38R
MITCHELL       CLOUDY    47  43  86 CALM      30.39R
YANKTON        CLEAR     46  43  87 CALM      30.37R
$$

ABBREVIATIONS USED IN REMARKS
   TC - TEMPERATURE IN CELSIUS
  WCI - WIND CHILL INDEX
   HX - HEAT INDEX
  VSB - VISIBILITY





USA.gov is the U.S. government's official web portal to all federal, state and local government web resources and services.